This is the latest recevied weather packets stored in our database for station/object KC5EZZ-2. If no packets are shown the sender has not sent any weather packets the latest 10 day(s).
| Time | Temp. | Humidity | Pressure | Rain* | Wind** | Luminosity | Snow |
|---|---|---|---|---|---|---|---|
| 1777991942 | 23.89° C | - | - | 0 mm | 5.36 m/s, 225° | - | - |
| 1777991642 | 23.89° C | - | - | 0 mm | 3.58 m/s, 208° | - | - |
| 1777991371 | 23.33° C | - | - | 0 mm | 4.92 m/s, 203° | - | - |
| 1777991340 | 23.33° C | - | - | 0 mm | 4.92 m/s, 203° | - | - |
| 1777991085 | 23.33° C | - | - | 0 mm | 4.02 m/s, 207° | - | - |
| 1777991041 | 23.33° C | - | - | 0 mm | 4.02 m/s, 207° | - | - |
| 1777990772 | 22.78° C | - | - | 0 mm | 4.47 m/s, 191° | - | - |
| 1777990741 | 22.78° C | - | - | 0 mm | 4.47 m/s, 191° | - | - |
| 1777990470 | 22.78° C | - | - | 0 mm | 2.68 m/s, 191° | - | - |
| 1777990439 | 22.78° C | - | - | 0 mm | 2.68 m/s, 191° | - | - |
| 1777989838 | 22.78° C | - | - | 0 mm | 4.47 m/s, 193° | - | - |
| 1777989536 | 22.78° C | - | - | 0 mm | 4.02 m/s, 173° | - | - |
| 1777989234 | 22.22° C | - | - | 0 mm | 4.02 m/s, 225° | - | - |
| 1777988935 | 22.22° C | - | - | 0 mm | 4.92 m/s, 212° | - | - |
| 1777988663 | 22.22° C | - | - | 0 mm | 4.02 m/s, 204° | - | - |
| 1777988632 | 22.22° C | - | - | 0 mm | 4.02 m/s, 204° | - | - |
| 1777988333 | 22.22° C | - | - | 0 mm | 3.58 m/s, 219° | - | - |
| 1777988064 | 22.22° C | - | - | 0 mm | 4.47 m/s, 162° | - | - |
| 1777988033 | 22.22° C | - | - | 0 mm | 4.47 m/s, 162° | - | - |
| 1777987729 | 21.67° C | - | - | 0 mm | 3.13 m/s, 221° | - | - |
| 1777987461 | 21.67° C | - | - | 0 mm | 3.58 m/s, 226° | - | - |
| 1777987429 | 21.67° C | - | - | 0 mm | 3.58 m/s, 226° | - | - |
| 1777987130 | 21.11° C | - | - | 0 mm | 3.58 m/s, 214° | - | - |
| 1777986858 | 21.11° C | - | - | 0 mm | 4.02 m/s, 184° | - | - |
| 1777986835 | 21.11° C | - | - | 0 mm | 2.24 m/s, 197° | - | - |
* Rain latest hour (hover to see other rain measurements)
** Current wind speed in m/s (hover to see current wind gust speed)